AirNav   Air Wisconsin pilot careers
 
 489 users online  

TS23 MGM Heliport
Austin, Texas, USA

GOING TO AUSTIN?


FAA INFORMATION EFFECTIVE 29 MARCH 2018

Location

FAA Identifier: TS23
Lat/Long: 30-20-14.7300N / 097-54-22.0300W
30-20.245500N / 097-54.367167W
30.3374250 / -97.9061194
(estimated)
Elevation: 540 ft. / 165 m (estimated)
Variation: 06E (2000)
From city: 15 miles NW of AUSTIN, TX
Time zone: UTC -5 (UTC -6 during Standard Time)
Zip code: 78732

Heliport Operations

Heliport use: Private use. Permission required prior to landing
Activation date: 02/2002
Control tower: no
ARTCC: HOUSTON CENTER
FSS: SAN ANGELO FLIGHT SERVICE STATION
Attendance: UNATNDD
Wind indicator: yes
Segmented circle: no

Heliport Communications

WX ASOS at RYW (10 nm N): 119.375 (512-267-1365)
WX ASOS at AUS (15 nm SE): PHONE 512-369-7881
WX AWOS-3 at EDC (18 nm E): 118.825 (512-616-2967)

Nearby radio navigation aids

VOR radial/distance  VOR name  Freq  Var
CWKr257/19.6CENTEX VORTAC112.8006E

Heliport Services

Runway Information

Helipad H1

Dimensions: 100 x 100 ft. / 30 x 30 m
Surface: concrete
Traffic pattern: leftleft

Heliport Ownership and Management from official FAA records

Ownership: Privately-owned
Owner: MGM HOLDINGS INC
12021 SELMA HUGHES PARK ROAD
AUSTIN, TX 78759
Phone 512-266-1011
Manager: MICHAEL MCCARTHY
12021 SELMA HUGHES PARK ROAD
AUSTIN, TX 78759
Phone 512-266-1011

Heliport Operational Statistics

Aircraft based on the field: 1
Helicopters: 1
    

Additional Remarks

A52-H1 40 FT TREES 50 FT SOUTH & 40 FT PLINE 150 FT WEST OF HELIPAD.

Instrument Procedures

There are no published instrument procedures at TS23.

Some nearby airports with instrument procedures:

3R9 - Lakeway Airpark (5 nm W)
KRYW - Lago Vista TX - Rusty Allen Airport (10 nm N)
KAUS - Austin-Bergstrom International Airport (15 nm SE)
KEDC - Austin Executive Airport (18 nm E)
KGTU - Georgetown Municipal Airport (24 nm NE)
 
Loc | Ops | Rwys | IFR | FBO | Links
Com | Nav | Svcs | Stats | Notes

AirNav Hotels Sweepstakes
 
Area around TS23 (MGM Heliport)
 
Road maps at: MapQuest Bing Google
 
Aerial photo
No photo
 
Sectional chart

 
Airport distance calculator
Flying to MGM Heliport? Find the distance to fly.

From to TS23

Sunrise and sunset
Times for 20-Apr-2018
 Local
(UTC-5)
 Zulu
(UTC)
Morning civil twilight06:3511:35
Sunrise07:0012:00
Sunset20:0101:01
Evening civil twilight20:2601:26

Current date and time
Zulu (UTC)  20-Apr-2018 05:18:59
Local (UTC-5)  20-Apr-2018 00:18:59
 
METAR
KRYW 
10nm N 
200455Z AUTO 08006KT 10SM CLR 16/04 A3024 RMK AO2 T01570035
KATT 
11nm E 
200451Z AUTO VRB03KT 10SM CLR 17/03 A3024 RMK AO2 SLP234 T01670028
KAUS 
11nm E 
200453Z 00000KT 10SM BKN200 12/06 A3024 RMK AO2 SLP236 T01220061
KEDC 
18nm E 
200455Z AUTO 06005KT 10SM CLR 15/04 A3023 RMK AO2
TAF
KAUS 
11nm E 
191720Z 1918/2024 06016KT P6SM BKN250 FM192300 03007KT P6SM BKN200 FM201400 08012KT P6SM OVC050
NOTAMs
Click for the latest NOTAMs
NOTAMs are issued by the DoD/FAA and will open in a separate window not controlled by AirNav.

 

 
 

Would you like to see your business listed on this page?

 If your business provides an interesting product or service to pilots, flight crews, aircraft, or users of the MGM Heliport, you should consider listing it here.  To start the listing process, click on the button below
 
Add a business
 

Other Pages about MGM Heliport

Update a link
 
Copyright © AirNav, LLC. All rights reserved. Privacy Policy  Contact